Regional Weather Roundup
Issued by NWS Grand Forks, ND

Home | Current Version | Previous Version | Graphics & Text | Print | Product List | Glossary On
Versions: 1 2 3 4 5 6 7 8 9 10 11 12 13 14 15 16 17 18 19 20 21 22 23 24 25 26 27 28 29 30 31 32 33 34 35 36 37 38 39 40 41 42 43 44 45 46 47 48 49 50
299
ASUS43 KFGF 270610
RWRFGF
PRAIRIE TO PINES  WEATHER ROUNDUP
NATIONAL WEATHER SERVICE EASTERN NORTH DAKOTA/GRAND FORKS ND
100 AM CDT MON MAR 27 2017

 **SATELLITE DATA USED TO AUGMENT SKY COVER AT AUTOMATED STATIONS**
 *****  WEATHER ACROSS EASTERN NORTH DAKOTA  *****

CITY           SKY/WX    TMP DP  RH WIND       PRES   REMARKS
GRAND FORKS    CLOUDY    40  39  97 CALM      29.96R
6HR MIN TEMP:  35; 6HR MAX TEMP:  46;

GRAND FRKS AFB CLOUDY    33  33 100 CALM      29.96R
DEVILS LAKE    FAIR      32  31  96 SE5       29.94R FOG
6HR MIN TEMP:  31; 6HR MAX TEMP:  48;

FARGO          FAIR      34  33  96 CALM      29.95R
WAHPETON ARPT    N/A     34  32  93 CALM      29.96S
$$

 ***** WEATHER ACROSS CENTRAL AND WESTERN NORTH DAKOTA  *****

CITY           SKY/WX    TMP DP  RH WIND       PRES   REMARKS
BISMARCK       FAIR      37  33  85 E3        29.93S
6HR MIN TEMP:  37; 6HR MAX TEMP:  57;

MINOT          MOCLDY    42  35  76 SE3       29.87F
6HR MIN TEMP:  41; 6HR MAX TEMP:  55;

JAMESTOWN      FAIR      36  35  96 SW5       29.93R
6HR MIN TEMP:  35; 6HR MAX TEMP:  51;

MINOT AFB      FAIR      37  35  90 N6        29.87F
GARRISON         N/A     42  35  76 CALM      29.88F
WILLISTON      FAIR      35  28  75 NW3       29.89S
6HR MIN TEMP:  34; 6HR MAX TEMP:  59;

DICKINSON      FAIR      38  31  76 S6        29.86F
6HR MIN TEMP:  36; 6HR MAX TEMP:  56;

HETTINGER      FAIR      38  34  85 CALM      29.91F
6HR MIN TEMP:  37; 6HR MAX TEMP:  57;

$$

 *****  OTHER AIRPORT OBSERVATIONS IN OUR AREA  *****

CITY           SKY/WX    TMP DP  RH WIND       PRES   REMARKS
WALHALLA       NOT AVBL
GRAFTON AIRPOR FOG       36  36 100 CALM      29.97F VSB<1/4
VALLEY CITY AR FAIR      34  34 100 CALM      29.95S
CANDO          NOT AVBL
CAVALIER APRT  FOG       28  28 100 CALM      29.95S VSB<1/4
GWINNER        MOCLDY    37  36  93 MISG      29.95R
SHEYENNE NWR     N/A     35  35 100 CALM      29.95S
ROLLA          CLOUDY    36  36 100 CALM      29.94S
 ***** THE ABOVE OBSERVATIONS ARE NON NWS ARE NOT QUALITY
       CONTROLLED AND MAY MIS-REPORT RAIN FOR SNOW...
$$

  *****  WEATHER ACROSS NORTHERN MINNESOTA  *****

CITY           SKY/WX    TMP DP  RH WIND       PRES   REMARKS
FLAG ISLAND    FAIR      30  28  93 CALM      29.93S
WARROAD        FAIR      30  27  86 W3        29.95R FOG
ROSEAU         FAIR      28  25  86 CALM      29.95R FOG
HALLOCK        FOG       30  30 100 CALM      29.95F VSB 1/4
THF RVR FALLS  FOG       29  27  92 CALM      29.96R VSB 1/4
BAUDETTE       FAIR      29  27  92 CALM      29.93S FOG
6HR MIN TEMP:  28; 6HR MAX TEMP:  41;

WASKISH        FAIR      30  28  93 CALM      29.95R
CROOKSTON      FOG       30  30 100 CALM      29.97R VSB 1/2
GREENBUSH NDAW   N/A     30  30 100 CALM        N/A
$$
  *****  WEATHER ACROSS CENTRAL AND WEST MINNESOTA  *****

CITY           SKY/WX    TMP DP  RH WIND       PRES   REMARKS
FOSSTON        CLOUDY    34  34 100 CALM      29.95S FOG
BEMIDJI        FAIR      33  30  90 CALM      29.93S
PARK RAPIDS    CLOUDY    37  30  75 CALM      29.92F
6HR MIN TEMP:  34; 6HR MAX TEMP:  46;

ELBOW LAKE     FAIR      36  35  98 N5        29.96R
6HR MIN TEMP:  36; 6HR MAX TEMP:  43;

WADENA         FAIR      34  30  86 CALM      29.93S
DETROIT LAKES  FAIR      37  36  93 NW3       29.95S
MOORHEAD       CLOUDY    36  34  93 CALM      29.97R
FERGUS FALLS   CLOUDY    37  36  93 NE3       29.99R
MORRIS MN      FAIR      36  36 100 CALM      29.94S
STAPLES        FAIR      36  32  87 CALM      29.93F
$$
  *****  WEATHER ELSEWHERE ACROSS MINNESOTA  *****

CITY           SKY/WX    TMP DP  RH WIND       PRES   REMARKS
DULUTH         FOG       32  31  96 CALM      29.92S VSB 1/2
6HR MIN TEMP:  32; 6HR MAX TEMP:  33;

INTRNTL FALLS  FAIR      29  27  92 CALM      29.92S
6HR MIN TEMP:  29; 6HR MAX TEMP:  42;

ELY            FAIR      28  27  93 CALM      29.91S
CLOQUET        FOG       30  28  93 CALM      29.93S VSB 1
WHEATON        FAIR      36  34  93 SW3       29.98R
BRAINERD       CLOUDY    35  32  88 S3        29.94S
6HR MIN TEMP:  32; 6HR MAX TEMP:  44;

HIBBING        FAIR      29  29 100 CALM      29.92S
6HR MIN TEMP:  29; 6HR MAX TEMP:  39;

ALEXANDRIA     MOCLDY    39  34  82 CALM      29.94S
6HR MIN TEMP:  38; 6HR MAX TEMP:  46;

SAINT CLOUD    CLOUDY    37  37 100 CALM      29.94F
6HR MIN TEMP:  37; 6HR MAX TEMP:  38;

MINNEAPOLIS    CLOUDY    39  35  86 NE5       29.93F
6HR MIN TEMP:  39; 6HR MAX TEMP:  43; 6HR PCP: TRACE;

$$

  *****  WEATHER ACROSS SOUTH DAKOTA  *****

CITY           SKY/WX    TMP DP  RH WIND       PRES   REMARKS
SIOUX FALLS    CLOUDY    43  39  86 CALM      29.95F
6HR MIN TEMP:  43; 6HR MAX TEMP:  46;

BROOKINGS      FOG       34  34 100 CALM      29.94R VSB 3/4
WATERTOWN      CLOUDY    36  35  96 CALM      29.95R
6HR MIN TEMP:  34; 6HR MAX TEMP:  44;

HURON          CLOUDY    38  36  92 W5        29.95F
6HR MIN TEMP:  37; 6HR MAX TEMP:  47;

SISSETON         N/A     37  36  96 W3        29.95R
ABERDEEN       CLOUDY    40  35  83 W5        29.97R
6HR MIN TEMP:  39; 6HR MAX TEMP:  48;

MITCHELL       FAIR      38  36  92 CALM      29.97R
PIERRE         CLOUDY    41  39  93 CALM      29.95S
6HR MIN TEMP:  37; 6HR MAX TEMP:  46;

MOBRIDGE       CLOUDY    43  36  76 E5        29.91S
RAPID CITY     FAIR      33  31  92 S3        29.94S FOG
6HR MIN TEMP:  31; 6HR MAX TEMP:  44;

$$

  *****  SOME WEATHER IN NEARBY STATES *****

CITY           SKY/WX    TMP DP  RH WIND       PRES   REMARKS
GLASGOW MT     FAIR      38  24  57 NE8       29.86S
6HR MIN TEMP:  38; 6HR MAX TEMP:  55;

GREAT FALLS MT CLOUDY    44  16  32 E7        29.79F
6HR MIN TEMP:  44; 6HR MAX TEMP:  54;

CHEYENNE WY    FAIR      35  31  85 SW5       29.97F
6HR MIN TEMP:  34; 6HR MAX TEMP:  44;

SCOTTSBLUFF NE FAIR      33  28  81 NE5       29.96S
6HR MIN TEMP:  33; 6HR MAX TEMP:  52;

OMAHA NE       CLOUDY    47  42  83 N7        29.93F
6HR MIN TEMP:  47; 6HR MAX TEMP:  49;

DES MOINES IA  CLOUDY    46  44  93 CALM      29.93S
6HR MIN TEMP:  46; 6HR MAX TEMP:  48; 6HR PCP: TRACE;

DAVENPORT IA   CLOUDY    47  45  93 W8        29.93R FOG
6HR MIN TEMP:  47; 6HR MAX TEMP:  50;

CHICAGO IL     DRIZZLE   52  50  93 SW10      29.87S FOG
6HR MIN TEMP:  52; 6HR MAX TEMP:  57; 6HR PCP: TRACE;

EAU CLAIRE WI  CLOUDY    39  38  96 N5        29.90F
6HR MIN TEMP:  39; 6HR MAX TEMP:  43;

LA CROSSE WI   CLOUDY    42  40  92 CALM      29.91F
6HR MIN TEMP:  42; 6HR MAX TEMP:  43; 6HR PCP: TRACE;

$$

  *****  SOME NATIONAL WEATHER *****

CITY           SKY/WX    TMP DP  RH WIND       PRES   REMARKS
LA GUARDIA NY  DRIZZLE   39  37  92 NE13      30.26F FOG
6HR MIN TEMP:  39; 6HR MAX TEMP:  43; 6HR PCP:  0.02;

RALEIGH NC     FAIR      64  53  67 S10       30.13F
6HR MIN TEMP:  64; 6HR MAX TEMP:  71;

ATLANTA GA     FAIR      64  55  72 CALM      30.06S
6HR MIN TEMP:  64; 6HR MAX TEMP:  75;

NEW ORLEANS LA FAIR      70  68  93 SE8       29.97F
6HR MIN TEMP:  69; 6HR MAX TEMP:  75;

OKLAHOMA CITY  FAIR      53  50  89 NW22G30   29.75S
6HR MIN TEMP:  53; 6HR MAX TEMP:  73;

ALBUQUERQUE NM MOCLDY    52  25  35 NW5       30.02S
6HR MIN TEMP:  51; 6HR MAX TEMP:  66;

SALT LAKE CITY MOCLDY    50  33  52 SE6       29.92F
6HR MIN TEMP:  50; 6HR MAX TEMP:  53;

LOS ANGELES CA FAIR      58  52  80 W15       30.04S
6HR MIN TEMP:  58; 6HR MAX TEMP:  63;

BOISE ID       LGT RAIN  48  35  60 VRB7      29.86S
6HR MIN TEMP:  48; 6HR M



USA.gov is the U.S. government's official web portal to all federal, state and local government web resources and services.